Volver al catálogo

FENGYUN 1C DEB

ActivoSSO
NORAD 30250·DEBRIS·🇨🇳 China

Lanzado May 10, 1999 desde Taiyuan Satellite Launch Center

Loading…

Próximos Pases (próximas 24 horas)

TLE

ActualizadoSource: Space-Track

Época: Sep 14, 2026, 10:39 UTC

1 30250U 99025XK  26257.44428491  .00000154  00000-0  12617-3 0  9993
2 30250  98.7694 243.5775 0065824 173.9959 338.5625 14.01883257  3549

Sigue FENGYUN 1C DEB en tiempo real con AllMySat

Download on the App Store